| time (UTC) | temp C | wind direction | speed KPH | gust KPH | rain 1hr cm | rain 24hr cm | rain mn cm | humidity % | barometer mb |
| 20260502162201 | 21 | 226 | 19.3 | 25.7 | 0.00 | 0.00 | 0.00 | 30 | 1014.0 |
| 20260502161101 | 22 | 290 | 12.9 | 24.1 | 0.00 | 0.00 | 0.00 | 30 | 1014.1 |
| 20260502151602 | 22 | 211 | 17.7 | 25.7 | 0.00 | 0.00 | 0.00 | 28 | 1014.6 |
| 20260502150501 | 23 | 218 | 19.3 | 27.4 | 0.00 | 0.00 | 0.00 | 28 | 1014.4 |
| 20260502130400 | 23 | 200 | 17.7 | 24.1 | 0.00 | 0.00 | 0.00 | 26 | 1015.8 |
| 20260502123100 | 23 | 232 | 19.3 | 27.4 | 0.00 | 0.00 | 0.00 | 26 | 1016.3 |
| 20260502122000 | 23 | 203 | 22.5 | 32.2 | 0.00 | 0.00 | 0.00 | 26 | 1016.5 |
| 20260502120900 | 23 | 218 | 20.9 | 27.4 | 0.00 | 0.00 | 0.00 | 29 | 1016.4 |
| 20260502114701 | 23 | 225 | 16.1 | 24.1 | 0.00 | 0.00 | 0.00 | 31 | 1016.8 |
| 20260502113600 | 22 | 168 | 16.1 | 20.9 | 0.00 | 0.00 | 0.00 | 30 | 1016.8 |
| 20260502112501 | 22 | 189 | 17.7 | 30.6 | 0.00 | 0.00 | 0.00 | 31 | 1017.0 |
| 20260502111400 | 22 | 173 | 17.7 | 24.1 | 0.00 | 0.00 | 0.00 | 32 | 1017.2 |
| 20260502110300 | 22 | 169 | 16.1 | 17.7 | 0.00 | 0.00 | 0.00 | 31 | 1017.2 |
| 20260502105200 | 22 | 165 | 17.7 | 22.5 | 0.00 | 0.00 | 0.00 | 31 | 1017.5 |
| 20260502104100 | 22 | 173 | 20.9 | 27.4 | 0.00 | 0.00 | 0.00 | 34 | 1017.7 |
| 20260502102959 | 22 | 175 | 17.7 | 22.5 | 0.00 | 0.00 | 0.00 | 35 | 1017.6 |
| 20260502101859 | 22 | 178 | 17.7 | 30.6 | 0.00 | 0.00 | 0.00 | 35 | 1017.8 |
| 20260502100801 | 21 | 163 | 12.9 | 20.9 | 0.00 | 0.00 | 0.00 | 36 | 1017.8 |
| 20260502091259 | 21 | 174 | 12.9 | 16.1 | 0.00 | 0.00 | 0.00 | 40 | 1018.5 |
| 20260502090200 | 20 | 173 | 12.9 | 19.3 | 0.00 | 0.00 | 0.00 | 40 | 1018.9 |
| 20260502071200 | 17 | 175 | 11.3 | 14.5 | 0.00 | 0.00 | 0.00 | 46 | 1019.7 |
| 20260502070059 | 17 | 147 | 6.4 | 12.9 | 0.00 | 0.00 | 0.00 | 51 | 1019.9 |
| 20260502065000 | 16 | 184 | 9.7 | 12.9 | 0.00 | 0.00 | 0.00 | 51 | 1020.0 |
| 20260502063858 | 16 | 183 | 8.0 | 11.3 | 0.00 | 0.00 | 0.00 | 52 | 1020.0 |
| 20260502062758 | 15 | 163 | 6.4 | 12.9 | 0.00 | 0.00 | 0.00 | 54 | 1020.2 |
| 20260502061658 | 14 | 161 | 4.8 | 8.0 | 0.00 | 0.00 | 0.00 | 56 | 1020.5 |
| 20260502060558 | 12 | 166 | 3.2 | 3.2 | 0.00 | 0.00 | 0.00 | 59 | 1020.5 |
| 20260502054400 | 11 | 181 | 1.6 | 6.4 | 0.00 | 0.00 | 0.00 | 66 | 1020.7 |
| 20260502053258 | 10 | 305 | 1.6 | 3.2 | 0.00 | 0.00 | 0.00 | 70 | 1020.8 |
| 20260502052159 | 9 | 314 | 0.0 | 3.2 | 0.00 | 0.00 | 0.00 | 73 | 1021.0 |
| 20260502051059 | 8 | 303 | 0.0 | 3.2 | 0.00 | 0.00 | 0.00 | 75 | 1021.0 |
| 20260502045958 | 7 | 166 | 1.6 | 3.2 | 0.00 | 0.00 | 0.00 | 83 | 1021.0 |
| 20260502043758 | 5 | 135 | 0.0 | 1.6 | 0.00 | 0.00 | 0.00 | 82 | 1021.0 |
| 20260502041558 | 3 | 181 | 0.0 | 3.2 | 0.00 | 0.00 | 0.00 | 82 | 1021.2 |
| 20260502040458 | 3 | 159 | 1.6 | 3.2 | 0.00 | 0.00 | 0.00 | 81 | 1021.2 |
| 20260502035357 | 3 | 163 | 1.6 | 3.2 | 0.00 | 0.00 | 0.00 | 81 | 1021.2 |
| 20260502034257 | 3 | 143 | 3.2 | 3.2 | 0.00 | 0.00 | 0.00 | 81 | 1021.3 |
| 20260502033157 | 3 | 135 | 1.6 | 3.2 | 0.00 | 0.00 | 0.00 | 80 | 1021.4 |
| 20260502032057 | 3 | 135 | 1.6 | 3.2 | 0.00 | 0.00 | 0.00 | 80 | 1021.4 |
| 20260502030957 | 3 | 135 | 3.2 | 3.2 | 0.00 | 0.00 | 0.00 | 80 | 1021.6 |
| 20260502024757 | 4 | 135 | 3.2 | 3.2 | 0.00 | 0.00 | 0.00 | 80 | 1021.7 |
| 20260502023657 | 4 | 135 | 3.2 | 3.2 | 0.00 | 0.00 | 0.00 | 79 | 1021.8 |
| 20260502022557 | 4 | 135 | 3.2 | 3.2 | 0.00 | 0.00 | 0.00 | 78 | 1021.8 |
| 20260502020358 | 5 | 0 | 0.0 | 0.0 | 0.00 | 0.00 | 0.00 | 77 | 1022.0 |
| 20260502015257 | 5 | 0 | 0.0 | 0.0 | 0.00 | 0.00 | 0.00 | 76 | 1022.2 |
| 20260502014157 | 5 | 0 | 0.0 | 0.0 | 0.00 | 0.00 | 0.00 | 76 | 1022.4 |
| 20260502011957 | 5 | 138 | 3.2 | 3.2 | 0.00 | 0.00 | 0.00 | 75 | 1022.6 |
| 20260502010856 | 6 | 135 | 3.2 | 3.2 | 0.00 | 0.00 | 0.00 | 74 | 1022.6 |
| 20260502005756 | 6 | 135 | 1.6 | 3.2 | 0.00 | 0.00 | 0.00 | 74 | 1022.7 |
| 20260502001356 | 6 | 155 | 3.2 | 3.2 | 0.00 | 0.00 | 0.00 | 72 | 1022.8 |
| 20260502000256 | 6 | 171 | 1.6 | 3.2 | 0.00 | 0.00 | 0.00 | 71 | 1023.1 |
| 20260501235156 | 7 | 181 | 1.6 | 3.2 | 0.00 | 0.00 | 0.00 | 71 | 1023.2 |
| 20260501234056 | 7 | 181 | 1.6 | 3.2 | 0.00 | 0.00 | 0.00 | 70 | 1023.4 |
| 20260501232956 | 7 | 181 | 1.6 | 3.2 | 0.00 | 0.00 | 0.00 | 65 | 1023.3 |
| 20260501231856 | 7 | 181 | 0.0 | 3.2 | 0.00 | 0.00 | 0.00 | 64 | 1023.4 |
| 20260501230756 | 8 | 181 | 0.0 | 3.2 | 0.00 | 0.00 | 0.00 | 63 | 1023.5 |
| 20260501224556 | 8 | 0 | 0.0 | 0.0 | 0.00 | 0.00 | 0.00 | 61 | 1023.7 |
| 20260501223456 | 8 | 0 | 0.0 | 0.0 | 0.00 | 0.00 | 0.00 | 61 | 1023.7 |
| 20260501221255 | 9 | 181 | 0.0 | 3.2 | 0.00 | 0.00 | 0.00 | 60 | 1023.7 |
| 20260501215055 | 10 | 181 | 1.6 | 3.2 | 0.00 | 0.00 | 0.00 | 59 | 1023.9 |
| 20260501213956 | 10 | 181 | 0.0 | 3.2 | 0.00 | 0.00 | 0.00 | 57 | 1023.9 |
| 20260501211755 | 10 | 181 | 1.6 | 3.2 | 0.00 | 0.00 | 0.00 | 54 | 1024.0 |
| 20260501210655 | 11 | 146 | 1.6 | 3.2 | 0.00 | 0.00 | 0.00 | 53 | 1024.1 |
| 20260501205555 | 11 | 135 | 1.6 | 3.2 | 0.00 | 0.00 | 0.00 | 52 | 1024.0 |
| 20260501204455 | 12 | 119 | 1.6 | 3.2 | 0.00 | 0.00 | 0.00 | 51 | 1023.9 |
| 20260501203355 | 12 | 99 | 1.6 | 3.2 | 0.00 | 0.00 | 0.00 | 46 | 1024.1 |
| 20260501201155 | 13 | 131 | 0.0 | 3.2 | 0.00 | 0.00 | 0.00 | 44 | 1024.1 |
| 20260501200055 | 13 | 147 | 1.6 | 4.8 | 0.00 | 0.00 | 0.00 | 43 | 1024.2 |
| 20260501193855 | 15 | 135 | 1.6 | 3.2 | 0.00 | 0.00 | 0.00 | 41 | 1024.3 |
| 20260501192756 | 15 | 197 | 3.2 | 6.4 | 0.00 | 0.00 | 0.00 | 41 | 1024.3 |
| 20260501191656 | 16 | 170 | 3.2 | 6.4 | 0.00 | 0.00 | 0.00 | 40 | 1024.4 |
| 20260501190554 | 16 | 221 | 3.2 | 4.8 | 0.00 | 0.00 | 0.00 | 38 | 1024.4 |
| 20260501185454 | 17 | 196 | 4.8 | 6.4 | 0.00 | 0.00 | 0.00 | 36 | 1024.4 |
| 20260501183254 | 18 | 215 | 6.4 | 11.3 | 0.00 | 0.00 | 0.00 | 32 | 1024.3 |
| 20260501182156 | 18 | 214 | 4.8 | 6.4 | 0.00 | 0.00 | 0.00 | 31 | 1024.3 |
| 20260501181054 | 18 | 222 | 6.4 | 6.4 | 0.00 | 0.00 | 0.00 | 30 | 1024.2 |
| 20260501175954 | 19 | 241 | 6.4 | 11.3 | 0.00 | 0.00 | 0.00 | 28 | 1024.2 |
| 20260501174855 | 19 | 242 | 9.7 | 16.1 | 0.00 | 0.00 | 0.00 | 27 | 1024.3 |
| 20260501173754 | 20 | 259 | 9.7 | 12.9 | 0.00 | 0.00 | 0.00 | 26 | 1024.0 |
| 20260501172655 | 20 | 221 | 9.7 | 16.1 | 0.00 | 0.00 | 0.00 | 26 | 1024.0 |
| 20260501171554 | 20 | 220 | 11.3 | 19.3 | 0.00 | 0.00 | 0.00 | 24 | 1024.1 |
| 20260501170454 | 20 | 231 | 9.7 | 12.9 | 0.00 | 0.00 | 0.00 | 25 | 1024.1 |
| 20260501165355 | 21 | 206 | 11.3 | 12.9 | 0.00 | 0.00 | 0.00 | 25 | 1024.3 |
| 20260501164255 | 21 | 231 | 12.9 | 17.7 | 0.00 | 0.00 | 0.00 | 25 | 1024.4 |